Regional Weather Roundup
Issued by NWS New Orleans/Baton Rouge, LA

Home | Current Version | Previous Version | Text Only | Print | Product List | Glossary On
Versions: 1 2 3 4 5 6 7 8 9 10 11 12 13 14 15 16 17 18 19 20 21 22 23 24 25 26 27
000
ASUS44 KLIX 140712
RWRLIX
NEW ORLEANS REGIONAL WEATHER ROUNDUP
NATIONAL WEATHER SERVICE NEW ORLEANS LA
100 AM CST THU DEC 14 2017

NOTE: "FAIR" INDICATES FEW OR NO CLOUDS BELOW 12,000 FEET WITH NO
      SIGNIFICANT WEATHER AND/OR OBSTRUCTIONS TO VISIBILITY.
      SKY/WX - SKY CONDITION AND SIGNIFICANT WEATHER.
      TMP - AIR TEMPERATURE.     DP    - DEWPOINT TEMPERATURE.
      RH  - RELATIVE HUMIDITY.   PRES  - PRESSURE.
      HI  - HEAT INDEX.          WCI   - WIND CHILL INDEX.

*  THESE STATIONS ARE NOT NWS OR FAA STATIONS AND ARE NOT UNDER
   NWS QUALITY CONTROL.

LAZ038-040-048-061>063-065>067-069-140800-
SOUTHEAST LOUISIANA

CITY           SKY/WX    TMP DP  RH WIND       PRES   REMARKS
N.O. INTL ARPT MOCLDY    48  44  86 CALM      29.98F
N.O. LAKEFRONT MOCLDY    51  45  79 SW6       29.99S
N.O. DOWNTOWN*   N/A     52  43  71 S3        29.99F
RESERVE*         N/A     47  41  80 CALM      29.98S
SLIDELL        PTCLDY    44  41  89 CALM      29.98F
BATON ROUGE    CLOUDY    46  42  86 SW3       29.97F
BOOTHVILLE     PTCLDY    54  51  90 CALM      29.99F
BELLE CHASSE   CLOUDY    40  40 100 CALM      29.98F
BOGALUSA*        N/A     39  36  89 MISG      29.99S
GALLIANO*      MOSUNNY   39  37  91 CALM      29.99S
NEW ROADS*       N/A     40  38  93 CALM      29.98S
GONZALES*        N/A     44  41  91 CALM      29.98S
HAMMOND*       CLOUDY    41  39  93 CALM      29.99S
HOUMA*         CLOUDY    42  41  95 CALM      29.98F
PORT FOURCHON* SUNNY     55  52  88 NW3       30.00R

$$

MSZ070-080>082-140800-
SOUTHERN MISSISSIPPI

CITY           SKY/WX    TMP DP  RH WIND       PRES   REMARKS
MCCOMB         CLOUDY    43  36  76 CALM      29.96F
GULFPORT       CLOUDY    49  43  80 CALM      29.98F
BILOXI         CLOUDY    50  43  78 W3        29.98S
PASCAGOULA     PTCLDY    49  43  80 CALM      29.98F

$$

COASTAL OBSERVATIONS
LAKE AND NEARSHORE STATIONS

STATION/POSITION TIME  TEMP    WIND        PRES    WAVE
                       AIR SEA DIR/SP/G            HT/PER
                 (UTC) (F)     (DEG/KT/KT) (MB)    (FT/S)
PASCAGOULA       0624   53     270/  8/ 10 1015.1
WAVELAND YACHT   0624   49 53  250/  3/  4 1015.3
GRAND ISLE       0624   58 63  300/  4/  6 1015.1
SOUTHWEST PASS   0624   62 61  300/  6/ 13 1016.2
NEW CANAL        0624   52 54  220/  5/  8 1015.1
SHELL BEACH      0624   50 55  220/  5/  5 1015.4

OFFSHORE STATIONS

STATION/POSITION TIME  TEMP    WIND        PRES    WAVE
                       AIR SEA DIR/SP/G            HT/PER
                 (UTC) (F)     (DEG/KT/KT) (MB)    (FT/S)
64 S DAUPHIN ISL 0650   63 72  270/ 14/ 17 1015.9    3/ 4

$$





USA.gov is the U.S. government's official web portal to all federal, state and local government web resources and services.